Regional Weather Roundup
Issued by NWS

Home | Current Version | Previous Version | Graphics & Text | Print | Product List | Glossary On
Versions: 1 2 3 4 5 6 7 8 9 10 11 12 13 14 15 16 17 18 19 20 21 22 23 24 25 26 27 28 29 30 31 32 33 34 35 36 37 38 39 40 41 42 43 44 45 46 47 48 49 50
000
ASUS45 KBOI 261910
RWRID
WEATHER ROUNDUP FOR IDAHO
NATIONAL WEATHER SERVICE BOISE ID
100 PM MDT TUE AUG 26 2014

NOTE: "FAIR" INDICATES FEW OR NO CLOUDS BELOW 12000 FEET
WITH NO SIGNIFICANT WEATHER AND/OR OBSTRUCTIONS TO VISIBILITY

IDZ012-014-262000-
SOUTHWEST IDAHO


CITY           SKY/WX    TMP DP  RH WIND       PRES   REMARKS
BOISE          SUNNY     75  49  39 VRB5      30.12F
CALDWELL       SUNNY     75  46  35 SW5       30.14F
MOUNTAIN HOME  SUNNY     74  49  42 VRB3      30.12F
$$

IDZ016-017-262000-
SOUTHCENTRAL IDAHO


CITY           SKY/WX    TMP DP  RH WIND       PRES   REMARKS
BURLEY         SUNNY     70  51  51 E6        30.16F
JEROME         SUNNY     69  49  48 E6        30.17F
TWIN FALLS     SUNNY     70  52  52 VRB5      30.17F
$$

IDZ019>023-262000-
SOUTHEAST IDAHO


CITY           SKY/WX    TMP DP  RH WIND       PRES   REMARKS
IDAHO FALLS    MOSUNNY   70  50  49 SW6       30.20F
POCATELLO      MOSUNNY   71  53  52 NW8       30.19F
REXBURG        SUNNY     68  49  50 NW5       30.20F
$$

IDZ006-010-011-018-031-032-262000-
CENTRAL IDAHO MOUNTAINS


CITY           SKY/WX    TMP DP  RH WIND       PRES   REMARKS
MCCALL         SUNNY     68  34  28 SE7       30.19F
HAILEY         MOSUNNY   68  50  52 SE8       30.23S
STANLEY          N/A     57  44  62 CALM      30.28F
SALMON         SUNNY     66  50  55 CALM      30.17F
CHALLIS        SUNNY     66  47  50 CALM      30.21F
$$

IDZ002-004-006-007-026-262000-
NORTHERN IDAHO


CITY           SKY/WX    TMP DP  RH WIND       PRES   REMARKS
LEWISTON       SUNNY     79  46  31 CALM      30.08F
LOWELL           N/A     75  49  39 N3        30.09F
COEUR D`ALENE  SUNNY     77  48  36 W7        30.10F
MULLAN PASS    SUNNY     62  41  46 NW8       30.26S
$$



USA.gov is the U.S. government's official web portal to all federal, state and local government web resources and services.